TimeEDT,TemperatureF,Dew PointF,Humidity,Sea Level PressureIn,VisibilityMPH,Wind Direction,Wind SpeedMPH,Gust SpeedMPH,PrecipitationIn,Events,Conditions,WindDirDegrees,DateUTC
12:53 AM,64.0,55.0,73,30.15,10.0,SSE,5.8,-,N/A,,Clear,160,2013-04-08 04:53:00
1:53 AM,64.0,54.0,70,30.14,10.0,SE,5.8,-,N/A,,Clear,140,2013-04-08 05:53:00
2:53 AM,61.0,53.1,75,30.13,10.0,SSE,4.6,-,N/A,,Clear,150,2013-04-08 06:53:00
3:53 AM,57.9,53.1,84,30.12,10.0,Calm,Calm,-,N/A,,Clear,0,2013-04-08 07:53:00
4:53 AM,57.9,53.1,84,30.12,10.0,Calm,Calm,-,N/A,,Mostly Cloudy,0,2013-04-08 08:53:00
5:53 AM,57.0,53.1,87,30.13,10.0,Calm,Calm,-,N/A,,Partly Cloudy,0,2013-04-08 09:53:00
6:53 AM,57.9,53.1,84,30.14,9.0,Calm,Calm,-,N/A,,Mostly Cloudy,0,2013-04-08 10:53:00
7:53 AM,60.1,54.0,80,30.17,9.0,Calm,Calm,-,N/A,,Mostly Cloudy,0,2013-04-08 11:53:00
8:53 AM,64.9,57.0,75,30.18,10.0,SSE,5.8,-,N/A,,Mostly Cloudy,160,2013-04-08 12:53:00
9:53 AM,72.0,57.9,61,30.18,10.0,SSE,10.4,-,N/A,,Clear,160,2013-04-08 13:53:00
1:53 PM,84.9,55.0,36,30.15,10.0,South,9.2,-,N/A,,Mostly Cloudy,170,2013-04-08 17:53:00
2:53 PM,84.9,54.0,34,30.13,10.0,South,3.5,-,N/A,,Scattered Clouds,170,2013-04-08 18:53:00
3:53 PM,84.0,53.1,34,30.11,10.0,South,4.6,-,N/A,,Scattered Clouds,190,2013-04-08 19:53:00
4:53 PM,84.9,52.0,32,30.10,10.0,Calm,Calm,-,N/A,,Scattered Clouds,0,2013-04-08 20:53:00
5:53 PM,82.9,52.0,34,30.10,10.0,SSE,6.9,-,N/A,,Scattered Clouds,160,2013-04-08 21:53:00
6:53 PM,82.9,52.0,34,30.10,10.0,Calm,Calm,-,N/A,,Scattered Clouds,0,2013-04-08 22:53:00
7:53 PM,77.0,59.0,54,30.10,10.0,Calm,Calm,-,N/A,,Overcast,0,2013-04-08 23:53:00
8:53 PM,71.1,57.9,63,30.12,10.0,Calm,Calm,-,N/A,,Partly Cloudy,0,2013-04-09 00:53:00
9:53 PM,66.9,57.0,70,30.14,10.0,Calm,Calm,-,N/A,,Clear,0,2013-04-09 01:53:00
10:53 PM,70.0,59.0,68,30.15,10.0,Calm,Calm,-,N/A,,Clear,0,2013-04-09 02:53:00
11:53 PM,64.0,57.0,78,30.16,10.0,Calm,Calm,-,N/A,,Clear,0,2013-04-09 03:53:00